Regional Weather Roundup
Issued by NWS

Home | Current Version | Previous Version | Text Only | Print | Product List | Glossary On
Versions: 1 2 3 4 5 6 7 8 9 10 11 12 13 14 15 16 17 18 19 20 21 22 23 24 25 26 27 28 29 30 31 32 33 34 35 36 37 38 39 40 41 42 43 44 45 46 47 48 49 50
000
ASUS45 KABQ 240810
RWRNM
NEW MEXICO REGIONAL WEATHER ROUNDUP
NATIONAL WEATHER SERVICE ALBUQUERQUE NM
200 AM MDT THU MAY 24 2018

NOTE: "FAIR" MEANS FEW OR NO CLOUDS BELOW 12,000 FEET AGL WITH NO
       SIGNIFICANT WEATHER OR OBSTRUCTIONS TO VISION.

      THIS PRODUCT IS RELEASED AS TWO VERSIONS.  ONE VERSION NEAR
      THE TOP OF THE HOUR CONTAINING PRELIMINARY DATA FROM ALBUQUERQUE
      AND OTHER STATIONS.  A FINAL VERSION WITH ADDITIONAL DATA IS
      ISSUED ABOUT 10 MINUTES AFTER THE HOUR.

NMZ501-503-504-510>518-240900-
NORTHWEST PLATEAU/NORTHCENTRAL MOUNTAINS

CITY           SKY/WX    TMP DP  RH WIND       PRES   REMARKS
FARMINGTON     FAIR      56  19  23 CALM      30.09R
LOS ALAMOS     FAIR      58  46  63 S8        30.23R
SANTA FE       FAIR      61  48  62 SE15      30.17R
TAOS           FAIR      49  32  52 E8        30.23S
ANGEL FIRE     FAIR      43  42  94 CALM      30.31S

$$
NMZ402-403-502-505>509-240900-
WESTCENTRAL MOUNTAINS/SOUTHWEST MOUNTAINS

CITY           SKY/WX    TMP DP  RH WIND       PRES   REMARKS
GALLUP         FAIR      47  14  26 CALM      30.20R
GRANTS         FAIR      54  23  30 W6        30.22R
SILVER CITY    FAIR      56  22  27 NW13      30.15R

$$
NMZ407-409-411-412-240900-
SOUTHERN DESERTS

CITY           SKY/WX    TMP DP  RH WIND       PRES   REMARKS
DEMING         FAIR      65  20  17 SW8       30.08S
LAS CRUCES     FAIR      66  44  44 SE6       30.11S
HOLLOMAN AFB   FAIR      70  45  40 S17       30.10R
ALAMOGORDO     FAIR      66  46  48 SE9       30.11R
T OR C         FAIR      65  20  17 W6        30.08R

$$
NMZ519>523-240900-
CENTRAL VALLEYS/CENTRAL HIGHLANDS

CITY           SKY/WX    TMP DP  RH WIND       PRES   REMARKS
ALBUQUERQUE    FAIR      63  21  20 S6        30.12R
DOUBLE EAGLE   FAIR      58  25  28 CALM      30.16R
MORIARTY ARPT  FAIR      58  49  74 SE9       30.19R
CLINES CORNERS FAIR      53  44  71 S16       30.23S
BELEN          FAIR      62  19  19 SW8       30.12R
SOCORRO        FAIR      61  27  28 W3        30.10R

$$
NMZ524>526-539-540-240900-
SOUTHCENTRAL MOUNTAINS

CITY           SKY/WX    TMP DP  RH WIND       PRES   REMARKS
RUIDOSO        NOT AVBL

$$
NMZ527>531-240900-
NORTHEAST HIGHLANDS/NORTHEAST PLAINS

CITY           SKY/WX    TMP DP  RH WIND       PRES   REMARKS
LAS VEGAS      FAIR      49  46  90 S10       30.23S
RATON          FAIR      56  52  86 S6        30.19S
CLAYTON        FAIR      55  51  86 S16       30.13F

$$
NMZ532>537-240900-
EASTCENTRAL PLAINS

CITY           SKY/WX    TMP DP  RH WIND       PRES   REMARKS
SANTA ROSA     FAIR      59  49  70 SE9       30.14S
TUCUMCARI      FAIR      59  54  83 E3        30.11F
CANNON AFB     FAIR      60  60 100 NE8       30.16R
CLOVIS AIRPORT FAIR      59  53  80 NE6       30.16S

$$
NMZ028-029-538-240900-
SOUTHEAST PLAINS

CITY           SKY/WX    TMP DP  RH WIND       PRES   REMARKS
ROSWELL        FAIR      59  54  83 CALM      30.10F
ARTESIA        FAIR      61  55  82 N5        30.10S
CARLSBAD       FAIR      57  54  89 W6        30.06S
HOBBS          FAIR      61  57  88 N5        30.10S


$$



USA.gov is the U.S. government's official web portal to all federal, state and local government web resources and services.